Le nostre stazioni meteo in Italia

Pubblicità
Il mio iltempo24.it
Decimomannu, Italia (16546): Temperatura & dewpoint: 15.09.2018 05:00:00 - 21.09.2018 05:00:00 (CEST)Decimomannu, Italia (16546): velocità del vento: 15.09.2018 05:00:00 - 21.09.2018 05:00:00 (CEST)Decimomannu, Italia (16546): direzione del vento: 15.09.2018 05:00:00 - 21.09.2018 05:00:00 (CEST)Decimomannu, Italia (16546): reduced air pressure: 15.09.2018 05:00:00 - 21.09.2018 05:00:00 (CEST)Decimomannu, Italia (16546): visibility: 15.09.2018 05:00:00 - 21.09.2018 05:00:00 (CEST)
Data & Tempo tt [°C] td [°C] ff [km/h] ff [kn] dd ppp [hPa] vv [km]
21.09.2018 05:00:00 - - - - - - -
21.09.2018 04:00:00 - - - - - - -
21.09.2018 03:00:00 - - - - - - -
21.09.2018 02:00:00 21,0 19,3 5 3 NNO 1013,4 12
21.09.2018 01:00:00 - - - - - - -
21.09.2018 00:00:00 - - - - - - -
20.09.2018 23:00:00 22,0 20,3 15 8 NO 1013,8 8
20.09.2018 22:00:00 - - - - - - -
20.09.2018 21:00:00 - - - - - - -
20.09.2018 20:00:00 22,8 21,8 15 8 ONO 1013,8 8
20.09.2018 19:00:00 - - - - - - -
20.09.2018 18:00:00 - - - - - - -
20.09.2018 17:00:00 25,4 23,3 26 14 NO 1013,9 15
20.09.2018 16:00:00 24,0 23,0 15 8 N - 10
20.09.2018 15:00:00 28,0 23,0 22 12 ONO - 10
20.09.2018 14:00:00 28,0 22,7 21 11 NO 1015,5 20
20.09.2018 13:00:00 27,0 21,0 18 10 NNO - 10
20.09.2018 12:00:00 - - - - - - -
20.09.2018 11:00:00 24,2 21,9 15 8 NO 1016,7 15
20.09.2018 10:00:00 - - - - - - -
20.09.2018 09:00:00 - - - - - - -
20.09.2018 08:00:00 19,4 17,5 9 5 ONO 1016,4 12
20.09.2018 07:00:00 - - - - - - -
20.09.2018 06:00:00 - - - - - - -
20.09.2018 05:00:00 20,0 18,3 9 5 NO 1015,9 10
20.09.2018 04:00:00 - - - - - - -
20.09.2018 03:00:00 - - - - - - -
20.09.2018 02:00:00 20,8 18,9 4 2 N 1016,7 10
20.09.2018 01:00:00 21,0 19,0 4 2 N - 10
20.09.2018 00:00:00 - - - - - - -
19.09.2018 23:00:00 21,8 20,1 4 2 O 1017,5 12
19.09.2018 22:00:00 - - - - - - -
19.09.2018 21:00:00 22,0 20,0 2 1 N - 10
19.09.2018 20:00:00 22,4 20,5 2 1 ESE 1016,2 9
19.09.2018 19:00:00 23,0 21,0 4 2 O - 8
19.09.2018 18:00:00 23,0 21,0 8 4 NE - 7
19.09.2018 17:00:00 23,0 21,5 9 5 E 1016,4 7
19.09.2018 16:00:00 22,0 20,0 9 5 ESE - 7
19.09.2018 15:00:00 22,0 21,0 8 4 NE - 3,0
19.09.2018 14:00:00 27,0 25,0 15 8 S 1015,8 3,0
19.09.2018 13:00:00 30,0 24,0 5 3 SO - 10
19.09.2018 12:00:00 29,0 24,0 8 4 ONO - 10
19.09.2018 11:00:00 27,0 22,8 5 3 NNO 1016,7 12
19.09.2018 10:00:00 24,0 22,0 8 4 E - 10
19.09.2018 09:00:00 21,0 19,0 8 4 NO - 10
19.09.2018 08:00:00 19,8 18,1 4 2 N 1015,7 10
19.09.2018 07:00:00 20,0 18,0 5 3 NO - 10
19.09.2018 06:00:00 21,0 19,0 2 1 NNO - 10
19.09.2018 05:00:00 20,8 19,1 8 4 N 1015,7 10
19.09.2018 04:00:00 21,0 19,0 5 3 O - 10
19.09.2018 03:00:00 22,0 20,0 8 4 NNO - 10
19.09.2018 02:00:00 21,8 20,4 4 2 NE 1016,0 10
19.09.2018 01:00:00 22,0 21,0 9 5 E - 10
19.09.2018 00:00:00 22,0 21,0 8 4 S - 10
18.09.2018 23:00:00 22,6 20,9 8 4 S 1016,8 10
18.09.2018 22:00:00 23,0 22,0 8 4 SO - 10
18.09.2018 21:00:00 25,0 23,0 9 5 SE - 10
18.09.2018 20:00:00 24,6 24,1 9 5 ESE 1016,3 10
18.09.2018 19:00:00 - - - - - - -
18.09.2018 18:00:00 - - - - - - -
18.09.2018 17:00:00 25,0 22,9 11 6 E 1016,8 20
18.09.2018 16:00:00 - - - - - - -
18.09.2018 15:00:00 - - - - - - -
18.09.2018 14:00:00 26,0 24,6 5 3 SSE 1018,1 10
18.09.2018 13:00:00 - - - - - - -
18.09.2018 12:00:00 - - - - - - -
18.09.2018 11:00:00 23,0 20,7 11 6 ONO 1018,4 7
18.09.2018 10:00:00 - - - - - - -
18.09.2018 09:00:00 - - - - - - -
18.09.2018 08:00:00 21,8 20,1 4 2 SSE 1017,8 7
18.09.2018 07:00:00 - - - - - - -
18.09.2018 06:00:00 - - - - - - -
18.09.2018 05:00:00 22,4 21,4 8 4 ESE 1017,7 10
18.09.2018 04:00:00 - - - - - - -
18.09.2018 03:00:00 - - - - - - -
18.09.2018 02:00:00 23,8 22,3 11 6 ESE 1017,4 20
18.09.2018 01:00:00 - - - - - - -
18.09.2018 00:00:00 - - - - - - -
17.09.2018 23:00:00 24,0 23,0 5 3 SSE 1018,2 12
17.09.2018 22:00:00 - - - - - - -
17.09.2018 21:00:00 - - - - - - -
17.09.2018 20:00:00 25,0 24,3 11 6 ESE 1017,8 15
17.09.2018 19:00:00 - - - - - - -
17.09.2018 18:00:00 27,0 24,0 16 9 SE - 10
17.09.2018 17:00:00 28,0 25,0 24 13 SE 1018,2 20
17.09.2018 16:00:00 - - - - - - -
17.09.2018 15:00:00 - - - - - - -
17.09.2018 14:00:00 29,4 25,0 22 12 SSE 1020,0 20
17.09.2018 13:00:00 - - - - - - -
17.09.2018 12:00:00 - - - - - - -
17.09.2018 11:00:00 25,0 23,3 5 3 ESE 1020,2 15
17.09.2018 10:00:00 - - - - - - -
17.09.2018 09:00:00 21,0 19,0 9 5 ONO - 10
17.09.2018 08:00:00 20,0 18,3 4 2 ENE 1019,4 20
17.09.2018 07:00:00 - - - - - - -
17.09.2018 06:00:00 - - - - - - -
17.09.2018 05:00:00 20,8 19,3 4 2 SE 1019,8 12
17.09.2018 04:00:00 - - - - - - -
17.09.2018 03:00:00 - - - - - - -
17.09.2018 02:00:00 21,6 19,7 8 4 E 1020,8 10
17.09.2018 01:00:00 - - - - - - -
17.09.2018 00:00:00 - - - - - - -
16.09.2018 23:00:00 23,0 21,3 8 4 ESE 1020,5 12
16.09.2018 22:00:00 - - - - - - -
16.09.2018 21:00:00 - - - - - - -
16.09.2018 20:00:00 25,2 24,0 13 7 SE 1020,6 12
16.09.2018 19:00:00 - - - - - - -
16.09.2018 18:00:00 - - - - - - -
16.09.2018 17:00:00 29,4 22,9 21 11 SE 1019,8 15
16.09.2018 16:00:00 - - - - - - -
16.09.2018 15:00:00 - - - - - - -
16.09.2018 14:00:00 30,8 23,0 11 6 SSE 1020,8 15
16.09.2018 13:00:00 - - - - - - -
16.09.2018 12:00:00 - - - - - - -
16.09.2018 11:00:00 24,6 22,7 4 2 O 1020,8 12
16.09.2018 10:00:00 - - - - - - -
16.09.2018 09:00:00 - - - - - - -
16.09.2018 08:00:00 19,8 18,1 8 4 S 1022,0 7
16.09.2018 07:00:00 - - - - - - -
16.09.2018 06:00:00 - - - - - - -
16.09.2018 05:00:00 20,0 18,3 5 3 OSO 1020,1 12
16.09.2018 04:00:00 - - - - - - -
16.09.2018 03:00:00 - - - - - - -
16.09.2018 02:00:00 21,0 19,5 5 3 N 1020,3 15
16.09.2018 01:00:00 - - - - - - -
16.09.2018 00:00:00 - - - - - - -
15.09.2018 23:00:00 23,0 22,2 11 6 NNO 1019,9 12
15.09.2018 22:00:00 - - - - - - -
15.09.2018 21:00:00 - - - - - - -
15.09.2018 20:00:00 26,0 21,2 8 4 NNE 1019,7 14
15.09.2018 19:00:00 - - - - - - -
15.09.2018 18:00:00 - - - - - - -
15.09.2018 17:00:00 30,0 20,0 16 9 NNO 1018,8 15
15.09.2018 16:00:00 30,0 20,0 11 6 NO - 10
15.09.2018 15:00:00 30,0 20,0 18 10 NNO - 10
15.09.2018 14:00:00 30,2 19,3 16 9 NNO 1019,5 15
15.09.2018 13:00:00 - - - - - - -
15.09.2018 12:00:00 27,0 20,0 13 7 NNO - 10
15.09.2018 11:00:00 25,4 22,5 11 6 NNO 1019,8 12
15.09.2018 10:00:00 24,0 22,0 9 5 NNO - 10
15.09.2018 09:00:00 19,0 17,0 5 3 NNO - 6
15.09.2018 08:00:00 18,0 16,3 4 2 O 1019,2 6
15.09.2018 07:00:00 17,0 16,0 5 3 O - 8
15.09.2018 06:00:00 18,0 16,0 8 4 NNO - 10
15.09.2018 05:00:00 18,4 16,7 8 4 N 1018,2 12

tt = Temperatura
td = dewpoint
ff = velocità del vento
dd = direzione del vento
ppp = reduced air pressure
vv = visibility

Stazioni seguenti

WeatherPro
AMSI
MeteoEarth